GW1491 Weather Reports


time (UTC)temp
C
wind
direction
speed
KPH
gust
KPH
rain 1hr
cm
rain 24hr
cm
rain mn
cm
humidity
%
barometer
mb
20260510164545 17 344 3.2 11.3 0.00 0.00 0.00 74 1017.2
20260510163944 17 330 1.6 4.8 0.00 0.00 0.00 76 1017.2
20260510162725 16 46 3.2 9.7 0.00 0.00 0.00 79 1016.9
20260510161529 15 33 3.2 9.7 0.00 0.00 0.00 84 1016.9
20260510160950 15 42 1.6 4.8 0.00 0.00 0.00 86 1016.5
20260510155736 15 62 4.8 6.4 0.00 0.00 0.00 90 1016.9
20260510155150 15 64 4.8 6.4 0.00 0.00 0.00 92 1016.5
20260510154523 15 59 6.4 6.4 0.00 0.00 0.00 93 1016.5
20260510153949 15 14 1.6 3.2 0.00 0.00 0.00 94 1016.2
20260510153322 14 47 3.2 6.4 0.00 0.00 0.00 95 1016.2
20260510152734 14 33 3.2 4.8 0.00 0.00 0.00 95 1015.9
20260510152149 14 35 6.4 9.7 0.00 0.00 0.00 96 1015.9
20260510151535 14 18 1.6 6.4 0.00 0.00 0.00 96 1015.9
20260510150914 14 34 4.8 4.8 0.00 0.00 0.00 96 1015.5
20260510150339 13 55 4.8 6.4 0.00 0.00 0.00 96 1015.5
20260510145717 14 26 3.2 9.7 0.00 0.00 0.00 96 1015.5
20260510145138 13 43 0.0 4.8 0.00 0.00 0.00 96 1015.5
20260510144510 13 38 3.2 3.2 0.00 0.00 0.00 95 1015.5
20260510143927 14 13 1.6 4.8 0.00 0.00 0.00 95 1015.9
20260510143335 14 33 3.2 3.2 0.00 0.00 0.00 94 1015.9
20260510142713 14 41 1.6 3.2 0.00 0.00 0.00 94 1015.9
20260510142128 14 12 1.6 1.6 0.00 0.00 0.00 94 1015.9
20260510140929 14 293 1.6 1.6 0.00 0.00 0.00 92 1016.2
20260510135715 14 328 3.2 4.8 0.00 0.00 0.00 90 1015.5
20260510135116 14 44 0.0 0.0 0.00 0.00 0.00 90 1015.5
20260510134511 15 49 3.2 4.8 0.00 0.00 0.00 89 1015.2
20260510133348 14 19 1.6 6.4 0.00 0.00 0.00 90 1015.2
20260510132749 15 58 3.2 6.4 0.00 0.00 0.00 90 1015.2
20260510131517 14 18 1.6 3.2 0.00 0.00 0.00 92 1014.9
20260510130920 14 13 1.6 1.6 0.00 0.00 0.00 92 1015.2
20260510130331 13 358 1.6 3.2 0.00 0.00 0.00 93 1015.2
20260510125751 13 322 1.6 3.2 0.00 0.00 0.00 93 1015.2
20260510125144 13 341 3.2 6.4 0.00 0.00 0.00 93 1014.9
20260510123308 13 35 1.6 3.2 0.00 0.00 0.00 94 1014.9
20260510122730 13 304 0.0 1.6 0.00 0.00 0.00 94 1014.5
20260510122134 13 273 6.4 6.4 0.00 0.00 0.00 95 1014.5
20260510121511 13 316 1.6 3.2 0.00 0.00 0.00 95 1014.5
20260510120949 13 304 3.2 4.8 0.00 0.00 0.00 95 1014.5
20260510115743 13 285 1.6 1.6 0.00 0.00 0.00 95 1014.2
20260510114518 13 293 3.2 4.8 0.00 0.00 0.00 96 1014.2
20260510113914 13 307 1.6 4.8 0.00 0.00 0.00 96 1014.2
20260510112710 13 267 1.6 4.8 0.00 0.00 0.00 96 1013.8
20260510112131 13 279 1.6 3.2 0.00 0.00 0.00 96 1013.5
20260510111532 13 260 3.2 6.4 0.00 0.00 0.00 96 1013.5
20260510110933 13 256 1.6 6.4 0.00 0.00 0.00 96 1013.8
20260510110312 13 276 3.2 4.8 0.00 0.00 0.00 96 1013.5
20260510105747 13 269 3.2 4.8 0.00 0.00 0.00 97 1013.2
20260510105143 12 283 1.6 3.2 0.00 0.00 0.00 97 1012.8
20260510103935 12 294 1.6 4.8 0.00 0.00 0.00 97 1012.5
20260510103324 12 280 3.2 4.8 0.00 0.00 0.00 97 1012.5
20260510102717 12 273 4.8 4.8 0.00 0.00 0.00 97 1012.5
20260510102142 12 300 3.2 4.8 0.00 0.00 0.00 96 1012.5
20260510101511 12 272 1.6 1.6 0.00 0.00 0.00 96 1012.5
20260510100351 12 279 0.0 1.6 0.00 0.00 0.00 96 1012.1
20260510095710 12 283 1.6 1.6 0.00 0.00 0.00 96 1012.1
20260510095139 12 277 1.6 1.6 0.00 0.00 0.00 95 1012.1
20260510094539 12 289 1.6 3.2 0.00 0.00 0.00 95 1012.1
20260510093908 12 232 0.0 3.2 0.00 0.00 0.00 95 1011.8
20260510093327 13 315 1.6 3.2 0.00 0.00 0.00 95 1011.8
20260510092725 13 280 1.6 1.6 0.00 0.00 0.00 95 1011.8
20260510092129 13 225 0.0 3.2 0.00 0.00 0.00 94 1011.8
20260510091537 13 243 1.6 1.6 0.00 0.00 0.00 94 1011.5
20260510090909 13 292 1.6 4.8 0.00 0.00 0.00 94 1011.5
20260510090341 13 289 3.2 3.2 0.00 0.00 0.00 94 1011.5
20260510085716 13 261 3.2 3.2 0.00 0.00 0.00 94 1011.1
20260510083948 13 292 1.6 3.2 0.00 0.00 0.00 93 1011.1
20260510083352 13 272 1.6 1.6 0.00 0.00 0.00 93 1011.1
20260510082744 13 264 1.6 1.6 0.00 0.00 0.00 92 1011.5
20260510082119 13 230 1.6 1.6 0.00 0.00 0.00 92 1011.1
20260510081549 13 272 0.0 1.6 0.00 0.00 0.00 92 1011.5
20260510080918 13 212 1.6 3.2 0.00 0.00 0.00 92 1011.1
20260510080327 13 285 1.6 1.6 0.00 0.00 0.00 91 1011.1
20260510075750 14 238 1.6 4.8 0.00 0.00 0.00 91 1011.5
20260510074542 14 287 1.6 1.6 0.00 0.00 0.00 91 1011.1
20260510073942 14 246 1.6 3.2 0.00 0.00 0.00 91 1011.1
20260510073347 14 252 1.6 3.2 0.00 0.00 0.00 90 1011.5
20260510072734 14 250 1.6 6.4 0.00 0.00 0.00 90 1011.1
20260510072126 14 277 1.6 3.2 0.00 0.00 0.00 90 1011.5
20260510071546 14 279 0.0 1.6 0.00 0.00 0.00 90 1011.1
20260510070925 14 318 0.0 1.6 0.00 0.00 0.00 90 1011.1
20260510070312 14 271 3.2 4.8 0.00 0.00 0.00 90 1011.1
20260510065734 14 354 3.2 9.7 0.00 0.00 0.00 90 1011.1
20260510065141 14 262 1.6 4.8 0.00 0.00 0.00 90 1011.1
20260510063923 14 268 0.0 3.2 0.00 0.00 0.00 89 1011.1
20260510063330 14 247 1.6 3.2 0.00 0.00 0.00 89 1011.1
20260510062709 14 274 4.8 6.4 0.00 0.00 0.00 89 1011.1
20260510062146 14 255 0.0 4.8 0.00 0.00 0.00 89 1011.1
20260510061534 15 235 3.2 9.7 0.00 0.00 0.00 88 1011.1
20260510060949 15 282 3.2 6.4 0.00 0.00 0.00 88 1011.1
20260510060341 15 295 8.0 9.7 0.00 0.00 0.00 88 1011.1
20260510055725 15 271 4.8 6.4 0.00 0.00 0.00 88 1011.1
20260510055118 15 281 1.6 3.2 0.00 0.00 0.00 88 1011.1
20260510054538 15 269 3.2 6.4 0.00 0.00 0.00 88 1011.1
20260510053314 15 287 4.8 6.4 0.00 0.00 0.00 87 1011.1
20260510052149 15 284 3.2 6.4 0.00 0.00 0.00 86 1011.1
20260510051548 15 231 3.2 4.8 0.00 0.00 0.00 86 1011.1
20260510050912 15 289 3.2 14.5 0.00 0.00 0.00 86 1011.1
20260510050332 15 262 3.2 6.4 0.00 0.00 0.00 86 1011.1
20260510045721 15 274 6.4 6.4 0.00 0.00 0.00 86 1011.1
20260510045110 15 210 4.8 6.4 0.00 0.00 0.00 85 1011.1
20260510043931 15 216 3.2 4.8 0.00 0.00 0.00 85 1011.1
20260510043338 15 132 4.8 9.7 0.00 0.00 0.00 84 1010.8
20260510042711 15 273 3.2 9.7 0.00 0.00 0.00 84 1010.8
20260510042145 15 286 3.2 6.4 0.00 0.00 0.00 84 1010.8
20260510041533 15 302 4.8 9.7 0.00 0.00 0.00 84 1011.1
20260510040924 15 180 3.2 11.3 0.00 0.00 0.00 84 1010.8
20260510040343 15 263 1.6 3.2 0.00 0.00 0.00 84 1010.8
20260510035747 15 284 8.0 11.3 0.00 0.00 0.71 84 1011.1
20260510035123 15 149 1.6 4.8 0.00 0.00 0.71 84 1011.1
20260510034541 15 177 1.6 4.8 0.00 0.00 0.71 83 1011.1
20260510033910 15 298 3.2 6.4 0.00 0.00 0.71 83 1010.8
20260510033316 15 244 3.2 11.3 0.00 0.00 0.71 83 1010.8
20260510032752 15 228 3.2 4.8 0.00 0.00 0.71 83 1010.8
20260510032147 15 202 3.2 12.9 0.00 0.00 0.71 83 1010.8
20260510031524 15 145 4.8 6.4 0.00 0.00 0.71 83 1010.4
20260510030919 15 263 1.6 3.2 0.00 0.00 0.71 83 1010.8
20260510030328 15 270 1.6 4.8 0.00 0.00 0.71 83 1010.4
20260510025732 15 275 3.2 6.4 0.00 0.00 0.71 82 1010.4
20260510025123 15 188 4.8 6.4 0.00 0.00 0.71 82 1010.4
20260510023940 15 217 0.0 1.6 0.00 0.00 0.71 82 1010.4
20260510022739 15 265 1.6 3.2 0.00 0.00 0.71 82 1010.4
20260510021510 15 257 3.2 4.8 0.00 0.00 0.71 81 1010.4
20260510020952 15 188 1.6 1.6 0.00 0.00 0.71 81 1010.4
20260510015740 16 219 0.0 1.6 0.00 0.00 0.71 79 1010.4
20260510015143 16 171 0.0 3.2 0.00 0.00 0.71 78 1010.1
20260510014511 16 198 1.6 3.2 0.00 0.00 0.71 77 1010.1
20260510013946 16 252 3.2 4.8 0.00 0.00 0.71 77 1009.8
20260510012725 16 181 1.6 3.2 0.00 0.00 0.71 75 1009.8
20260510012131 17 181 1.6 3.2 0.00 0.00 0.71 75 1009.4
20260510011556 17 236 1.6 4.8 0.00 0.00 0.71 74 1009.4
20260510010951 17 220 1.6 1.6 0.00 0.00 0.71 74 1009.4
20260510010348 17 290 3.2 4.8 0.00 0.00 0.71 74 1009.4
20260510005143 17 224 1.6 3.2 0.00 0.00 0.71 73 1009.1
20260510004550 17 178 1.6 1.6 0.00 0.00 0.71 72 1009.1
20260510003307 17 192 1.6 3.2 0.00 0.00 0.71 71 1009.1
20260510002716 18 199 0.0 1.6 0.00 0.00 0.71 70 1008.8
20260510001511 18 197 1.6 3.2 0.00 0.00 0.71 68 1008.8
20260510000943 18 164 1.6 3.2 0.00 0.00 0.71 67 1008.8
20260510000349 19 222 0.0 4.8 0.00 0.00 0.71 66 1008.8
20260509235710 19 191 3.2 4.8 0.00 0.00 0.71 65 1008.8
20260509235126 20 267 1.6 4.8 0.00 0.00 0.71 64 1008.8
20260509234543 20 242 1.6 6.4 0.00 0.00 0.71 63 1008.8
20260509233949 20 334 6.4 6.4 0.00 0.00 0.71 62 1008.8
20260509233339 20 269 8.0 12.9 0.00 0.00 0.71 62 1008.8
20260509232130 21 251 1.6 9.7 0.00 0.00 0.71 61 1008.4
20260509231509 21 274 1.6 3.2 0.00 0.00 0.71 61 1008.8
20260509230951 20 248 3.2 12.9 0.00 0.00 0.71 60 1008.4
20260509230332 21 251 0.0 11.3 0.00 0.00 0.71 60 1008.4
20260509225146 21 210 4.8 6.4 0.00 0.00 0.71 59 1008.4
20260509224535 21 152 3.2 6.4 0.00 0.00 0.71 61 1008.4
20260509223928 21 146 9.7 11.3 0.00 0.00 0.71 60 1008.8
20260509223343 21 39 3.2 11.3 0.00 0.00 0.71 60 1008.4
20260509222130 21 320 6.4 9.7 0.00 0.00 0.71 61 1008.8
20260509220918 21 229 6.4 16.1 0.00 0.00 0.71 61 1008.8
20260509220325 21 176 6.4 12.9 0.00 0.00 0.71 61 1008.8
20260509215723 21 242 8.0 11.3 0.00 0.00 0.71 60 1009.1
20260509215134 21 239 4.8 19.3 0.00 0.00 0.71 60 1009.1
20260509214520 21 226 12.9 25.7 0.00 0.00 0.71 60 1008.8
20260509213335 21 220 3.2 9.7 0.00 0.00 0.71 61 1008.8
20260509212739 21 247 3.2 9.7 0.00 0.00 0.71 60 1008.8
20260509212145 21 227 3.2 6.4 0.00 0.00 0.71 60 1008.8
20260509211542 21 262 3.2 11.3 0.00 0.00 0.71 61 1008.8
20260509210931 22 249 8.0 12.9 0.00 0.00 0.71 60 1008.8
20260509210318 21 236 3.2 9.7 0.00 0.00 0.71 60 1009.1
20260509205747 21 180 3.2 17.7 0.00 0.00 0.71 61 1008.8
20260509205134 21 252 3.2 4.8 0.00 0.00 0.71 61 1009.1
20260509204537 21 278 11.3 17.7 0.00 0.00 0.71 60 1009.1
20260509203950 21 181 8.0 11.3 0.00 0.00 0.71 61 1009.1
20260509203321 20 254 1.6 16.1 0.00 0.00 0.71 63 1009.1
20260509202753 21 241 4.8 9.7 0.00 0.00 0.71 62 1009.1
20260509202126 21 308 6.4 16.1 0.00 0.00 0.71 61 1009.1
20260509201532 21 268 6.4 12.9 0.00 0.00 0.71 64 1009.1
20260509200939 20 236 3.2 11.3 0.00 0.00 0.71 63 1009.4
20260509200309 20 274 3.2 12.9 0.00 0.00 0.71 64 1009.4
20260509195125 20 123 4.8 9.7 0.00 0.00 0.71 63 1009.8
20260509193915 20 225 6.4 12.9 0.00 0.00 0.71 63 1009.8
20260509193337 21 253 12.9 19.3 0.00 0.00 0.71 62 1009.8
20260509192748 20 219 3.2 6.4 0.00 0.00 0.71 65 1009.8
20260509191528 18 247 3.2 4.8 0.00 0.00 0.71 67 1010.1
20260509190313 20 262 6.4 11.3 0.00 0.00 0.71 65 1010.1
20260509185750 20 332 0.0 3.2 0.00 0.00 0.71 72 1010.1
20260509185114 18 223 4.8 9.7 0.00 0.00 0.71 68 1010.1
20260509184531 19 242 3.2 11.3 0.00 0.00 0.71 70 1010.1
20260509183936 18 271 3.2 6.4 0.00 0.00 0.71 72 1010.1
20260509183343 18 353 1.6 9.7 0.00 0.00 0.71 71 1010.1
20260509182727 18 287 3.2 4.8 0.00 0.00 0.71 71 1010.1
20260509182153 18 328 6.4 11.3 0.00 0.00 0.71 70 1010.1
20260509181515 18 183 4.8 12.9 0.00 0.00 0.71 71 1010.4
20260509180942 17 293 8.0 11.3 0.00 0.00 0.71 72 1010.4
20260509180315 18 309 4.8 12.9 0.00 0.00 0.71 73 1010.4
20260509175737 18 188 9.7 11.3 0.00 0.00 0.71 73 1010.4
20260509175152 18 324 1.6 9.7 0.00 0.00 0.71 74 1010.4
20260509174526 18 210 4.8 9.7 0.00 0.00 0.71 73 1010.4
20260509173311 18 203 3.2 9.7 0.00 0.00 0.71 74 1010.4
20260509172726 18 295 6.4 9.7 0.00 0.00 0.71 75 1010.4
20260509171510 18 311 3.2 11.3 0.00 0.00 0.71 78 1010.1
20260509170921 17 311 3.2 4.8 0.00 0.00 0.71 80 1010.4
20260509170323 17 274 3.2 6.4 0.00 0.00 0.71 81 1010.4
20260509165719 16 286 3.2 11.3 0.00 0.00 0.71 83 1010.4
20260509165132 16 300 3.2 9.7 0.00 0.00 0.71 87 1010.4